Location: Newark
(45.2500°N, 7.5833°E)
Time: 02:13:38
(UTC+00:00)

NUDT-PHONESAT - Pass Details

Date: 26 February 2020
Orbit: 486 x 502 km, 97.4° (Epoch: 08 April)

Event Time Altitude Azimuth Distance (km) Brightness Sun altitude
Rises 17:58:57 0° 198° (SSW) 2,544 ? -9.0°
Reaches altitude 10° 18:01:21 10° 214° (SW) 1,670 ? -9.5°
Maximum altitude 18:04:11 22° 266° (W) 1,128 ? -10.0°
Drops below altitude 10° 18:07:02 10° 318° (NW) 1,687 ? -10.5°
Sets 18:09:29 0° 334° (NNW) 2,577 ? -10.9°
